Weather History for Charles City, IA

Change the Weather History Date:

Wednesday, February 19, 2014

  Actual Average Record
Temperature  
Mean Temperature 29 °F -  
Max Temperature 37 °F 32 °F 61 °F (1981)
Min Temperature 21 °F 15 °F -19 °F (1959)
Degree Days  
Heating Degree Days 36    
Moisture  
Dew Point 27 °F    
Average Humidity 84    
Maximum Humidity 93    
Minimum Humidity 75    
Precipitation  
Precipitation 0.00 in - - ()
Sea Level Pressure  
Sea Level Pressure 29.83 in    
Wind  
Wind Speed 11 mph (SSW)    
Max Wind Speed 20 mph    
Max Gust Speed 22 mph    
Visibility 10 miles    
Events      
Averages and records for this station are not official NWS values.
T = Trace of Precipitation, MM = Missing Value Source: NWS Daily Summary

Daily Weather History Graph

Daily Weather History Graph

Search for Another Location

Airport:

Trip Planner

Search our weather history database for the weather conditions in past years. The results will help you decide how hot, cold, wet, or windy it might be!

Date:

Astronomy

Feb. 19, 2014 Rise Set
Actual Time 7:02 AM CST 5:46 PM CST
Civil Twilight 6:33 AM CST 6:15 PM CST
Nautical Twilight 6:00 AM CST 6:49 PM CST
Astronomical Twilight 5:27 AM CST 7:21 PM CST
Moon 10:49 PM CST (2/19) 9:00 AM CST (2/19)
Length of Visible Light 11h 42m
Length of Day
10h 44m
Waning Gibbous, 79% of the Moon is Illuminated
Feb 19
Waning Gibbous
Feb 22
Last Quarter
Mar 1
New
Mar 8
First Quarter
Mar 16
Full

Hourly Weather History & Observations

Time (CST) Temp. Windchill Dew Point Humidity Pressure Visibility Wind Dir Wind Speed Gust Speed Precip Events Conditions
12:15 AM 33.8 °F 23.9 °F 28.4 °F 81% 29.78 in 10.0 mi WNW 15.0 mph - N/A   Clear
12:35 AM 33.8 °F 23.9 °F 28.4 °F 81% 29.78 in 10.0 mi WNW 15.0 mph - N/A   Clear
12:55 AM 33.8 °F 23.9 °F 28.4 °F 81% 29.79 in 10.0 mi WNW 15.0 mph - N/A   Clear
1:15 AM 32.0 °F 21.6 °F 26.6 °F 80% 29.79 in 10.0 mi WNW 15.0 mph - N/A   Clear
1:35 AM 32.0 °F 21.6 °F 26.6 °F 80% 29.80 in 10.0 mi WNW 15.0 mph - N/A   Clear
1:55 AM 32.0 °F 22.1 °F 26.6 °F 80% 29.81 in 10.0 mi WNW 13.8 mph - N/A   Clear
2:15 AM 32.0 °F 22.5 °F 26.6 °F 80% 29.81 in 10.0 mi WNW 12.7 mph 19.6 mph N/A   Clear
2:35 AM 30.2 °F 19.8 °F 26.6 °F 86% 29.81 in 10.0 mi WNW 13.8 mph - N/A   Clear
2:55 AM 30.2 °F 20.8 °F 26.6 °F 86% 29.81 in 10.0 mi WNW 11.5 mph - N/A   Clear
3:15 AM 28.4 °F 18.5 °F 26.6 °F 93% 29.82 in 10.0 mi WNW 11.5 mph - N/A   Clear
3:35 AM 28.4 °F 19.1 °F 24.8 °F 86% 29.82 in 10.0 mi WNW 10.4 mph - N/A   Clear
3:55 AM 26.6 °F 19.1 °F 24.8 °F 93% 29.82 in 10.0 mi WNW 6.9 mph - N/A   Clear
4:15 AM 26.6 °F 19.1 °F 23.0 °F 86% 29.82 in 10.0 mi WNW 6.9 mph - N/A   Clear
4:35 AM 24.8 °F 16.9 °F 23.0 °F 93% 29.83 in 10.0 mi West 6.9 mph - N/A   Clear
4:55 AM 24.8 °F 16.9 °F 23.0 °F 93% 29.84 in 10.0 mi West 6.9 mph - N/A   Clear
5:15 AM 24.8 °F 16.1 °F 23.0 °F 93% 29.84 in 10.0 mi West 8.1 mph - N/A   Clear
5:35 AM 21.2 °F 12.6 °F 19.4 °F 93% 29.85 in 7.0 mi WSW 6.9 mph - N/A   Clear
5:55 AM 23.0 °F 13.9 °F 21.2 °F 93% 29.85 in 4.0 mi West 8.1 mph - N/A   Clear
6:15 AM 23.0 °F 14.7 °F 21.2 °F 93% 29.86 in 5.0 mi WSW 6.9 mph - N/A   Clear
6:35 AM 21.2 °F 11.7 °F 19.4 °F 93% 29.86 in 5.0 mi WSW 8.1 mph - N/A   Clear
6:55 AM 23.0 °F 15.8 °F 21.2 °F 93% 29.86 in 6.0 mi West 5.8 mph - N/A   Clear
7:15 AM 23.0 °F 15.8 °F 21.2 °F 93% 29.87 in 5.0 mi West 5.8 mph - N/A   Clear
7:35 AM 23.0 °F 14.7 °F 21.2 °F 93% 29.88 in 7.0 mi West 6.9 mph - N/A   Clear
7:55 AM 21.2 °F 13.6 °F 19.4 °F 93% 29.88 in 5.0 mi WSW 5.8 mph - N/A   Clear
8:15 AM 21.2 °F 13.6 °F 19.4 °F 93% 29.88 in 9.0 mi WSW 5.8 mph - N/A   Clear
8:35 AM 24.8 °F 20.5 °F 23.0 °F 93% 29.87 in 10.0 mi WSW 3.5 mph - N/A   Clear
8:55 AM 24.8 °F 19.1 °F 23.0 °F 93% 29.88 in 10.0 mi West 4.6 mph - N/A   Clear
9:15 AM 26.6 °F 20.0 °F 23.0 °F 86% 29.88 in 10.0 mi WSW 5.8 mph - N/A   Partly Cloudy
9:35 AM 28.4 °F 22.2 °F 26.6 °F 93% 29.88 in 10.0 mi SW 5.8 mph - N/A   Clear
9:55 AM 30.2 °F 25.4 °F 26.6 °F 86% 29.88 in 10.0 mi WSW 4.6 mph - N/A   Clear
10:15 AM 32.0 °F 26.4 °F 28.4 °F 87% 29.89 in - SW 5.8 mph - N/A   Clear
10:35 AM 32.0 °F 28.7 °F 28.4 °F 87% 29.89 in 10.0 mi WSW 3.5 mph - N/A   Clear
10:55 AM 33.8 °F 30.8 °F 28.4 °F 81% 29.89 in 10.0 mi SW 3.5 mph - N/A   Clear
11:15 AM 33.8 °F 28.6 °F 28.4 °F 81% 29.89 in 10.0 mi SSW 5.8 mph - N/A   Clear
11:35 AM 33.8 °F 27.0 °F 28.4 °F 81% 29.89 in 10.0 mi SW 8.1 mph - N/A   Clear
11:55 AM 33.8 °F 27.7 °F 28.4 °F 81% 29.89 in 10.0 mi SW 6.9 mph - N/A   Clear
12:15 PM 33.8 °F 27.7 °F 28.4 °F 81% 29.89 in 10.0 mi South 6.9 mph - N/A   Clear
12:35 PM 33.8 °F 27.7 °F 30.2 °F 87% 29.87 in 10.0 mi South 6.9 mph - N/A   Clear
12:55 PM 35.6 °F 29.9 °F 30.2 °F 81% 29.87 in 10.0 mi South 6.9 mph - N/A   Clear
1:15 PM 35.6 °F 28.6 °F 30.2 °F 81% 29.87 in 10.0 mi SSW 9.2 mph - N/A   Clear
1:35 PM 35.6 °F 28.0 °F 30.2 °F 81% 29.87 in 10.0 mi SSW 10.4 mph - N/A   Clear
1:55 PM 35.6 °F 28.6 °F 30.2 °F 81% 29.86 in 10.0 mi South 9.2 mph - N/A   Clear
2:15 PM 37.4 °F 30.8 °F 30.2 °F 75% 29.85 in 10.0 mi SSE 9.2 mph - N/A   Clear
2:35 PM 37.4 °F 29.8 °F 30.2 °F 75% 29.85 in 10.0 mi South 11.5 mph - N/A   Clear
2:55 PM 37.4 °F 29.3 °F 30.2 °F 75% 29.86 in 10.0 mi South 12.7 mph - N/A   Clear
3:15 PM 37.4 °F 30.3 °F 30.2 °F 75% 29.86 in 10.0 mi SSE 10.4 mph - N/A   Clear
3:35 PM 37.4 °F 29.3 °F 30.2 °F 75% 29.85 in 10.0 mi SSE 12.7 mph - N/A   Clear
3:55 PM 35.6 °F 27.1 °F 30.2 °F 81% 29.85 in 10.0 mi SSE 12.7 mph - N/A   Clear
4:15 PM 35.6 °F 27.1 °F 30.2 °F 81% 29.84 in 10.0 mi South 12.7 mph - N/A   Clear
4:35 PM 35.6 °F 26.6 °F 30.2 °F 81% 29.84 in 10.0 mi South 13.8 mph - N/A   Clear
4:55 PM 35.6 °F 27.5 °F 30.2 °F 81% 29.83 in 10.0 mi SSE 11.5 mph - N/A   Clear
5:15 PM 35.6 °F 28.0 °F 30.2 °F 81% 29.82 in 10.0 mi SSE 10.4 mph - N/A   Clear
5:35 PM 35.6 °F 28.0 °F 30.2 °F 81% 29.81 in 10.0 mi SE 10.4 mph - N/A   Clear
5:55 PM 33.8 °F 25.3 °F 30.2 °F 87% 29.81 in 10.0 mi SE 11.5 mph - N/A   Clear
6:15 PM 33.8 °F 24.8 °F 30.2 °F 87% 29.80 in 10.0 mi SE 12.7 mph - N/A   Partly Cloudy
6:35 PM 33.8 °F 24.8 °F 30.2 °F 87% 29.80 in 10.0 mi SE 12.7 mph - N/A   Mostly Cloudy
6:55 PM 33.8 °F 24.8 °F 30.2 °F 87% 29.80 in 10.0 mi SE 12.7 mph - N/A   Mostly Cloudy
7:15 PM 33.8 °F 24.3 °F 30.2 °F 87% 29.79 in 10.0 mi SE 13.8 mph - N/A   Overcast
7:35 PM 33.8 °F 25.3 °F 30.2 °F 87% 29.79 in 10.0 mi SE 11.5 mph - N/A   Mostly Cloudy
7:55 PM 33.8 °F 24.3 °F 30.2 °F 87% 29.78 in 10.0 mi SE 13.8 mph - N/A   Mostly Cloudy
8:15 PM 33.8 °F 23.9 °F 30.2 °F 87% 29.78 in 10.0 mi SE 15.0 mph - N/A   Mostly Cloudy
8:35 PM 33.8 °F 23.9 °F 30.2 °F 87% 29.78 in 10.0 mi SSE 15.0 mph - N/A   Scattered Clouds
8:55 PM 35.6 °F 26.6 °F 28.4 °F 75% 29.78 in 10.0 mi SSE 13.8 mph - N/A   Mostly Cloudy
9:15 PM 35.6 °F 25.9 °F 28.4 °F 75% 29.77 in 10.0 mi SE 16.1 mph - N/A   Overcast
9:35 PM 35.6 °F 27.5 °F 28.4 °F 75% 29.78 in 10.0 mi SE 11.5 mph - N/A   Overcast
9:55 PM 35.6 °F 28.0 °F 28.4 °F 75% 29.78 in 10.0 mi SE 10.4 mph - N/A   Overcast
10:15 PM 35.6 °F 27.1 °F 28.4 °F 75% 29.77 in 10.0 mi SE 12.7 mph - N/A   Overcast
10:35 PM 35.6 °F 26.6 °F 28.4 °F 75% 29.75 in 10.0 mi SE 13.8 mph - N/A   Overcast
10:55 PM 35.6 °F 26.2 °F 28.4 °F 75% 29.74 in 10.0 mi SE 15.0 mph 20.7 mph N/A   Overcast
11:15 PM 35.6 °F 26.6 °F 28.4 °F 75% 29.73 in 10.0 mi SSE 13.8 mph 21.9 mph N/A   Overcast
11:35 PM 35.6 °F 25.9 °F 28.4 °F 75% 29.72 in 10.0 mi SE 16.1 mph - N/A   Overcast
11:55 PM 35.6 °F 24.8 °F 28.4 °F 75% 29.70 in 10.0 mi SE 19.6 mph - N/A   Overcast